Regional Weather Roundup
Issued by NWS Bismarck, ND

Home | Current Version | Previous Version | Text Only | Print | Product List | Glossary On
Versions: 1 2 3 4 5 6 7 8 9 10 11 12 13 14 15 16 17 18 19 20 21 22 23 24 25 26 27 28 29 30 31 32 33 34 35 36 37 38 39 40 41 42 43 44 45 46 47 48 49 50
000
ASUS43 KBIS 041610
RWRBIS

NWR BROADCAST TEXT
NATIONAL WEATHER SERVICE BISMARCK ND
1100 AM CDT TUE AUG 04 2015

NOTE: "FAIR" INDICATES FEW OR NO CLOUDS BELOW 12,000 FEET WITH NO
SIGNIFICANT WEATHER AND/OR OBSTRUCTIONS TO VISIBILITY.


CITY           SKY/WX    TMP DP  RH WIND       PRES   REMARKS
WILLISTON      SUNNY     78  49  35 SE13G23   29.97S
MINOT          SUNNY     73  52  47 VRB7      30.00F
MINOT AFB      SUNNY     76  51  41 SE7       29.99F
BISMARCK       SUNNY     76  56  49 VRB6      30.01R
DICKINSON      SUNNY     75  56  51 SE14      29.98S
GARRISON         N/A     72  57  59 SE9       30.01R
HETTINGER ARPT SUNNY     74  58  57 SE10      30.00S
JAMESTOWN      SUNNY     72  52  49 E6        30.02S
CROSBY         FAIR      75  50  41 SE10      29.98F
HARVEY         FAIR      73  50  43 SE6       30.02S
HAZEN          FAIR      75  52  43 SE10      30.00F
LINTON         FAIR      77  59  53 S7        30.00S
OAKES            N/A     75  55  50 CALM      30.02S
STANLEY        FAIR      73  52  46 SE13      30.02S
$$

CITY           SKY/WX    TMP DP  RH WIND       PRES   REMARKS
GRAND FORKS    MOSUNNY   69  54  58 NE5       30.03S
GRAND FORKS AF SUNNY     68  54  61 VRB2      30.04S
DEVILS LAKE    SUNNY     70  52  52 SE8       30.03S
FARGO          SUNNY     73  51  46 N7        30.02S
CAVALIER       FAIR      66  54  63 NE6       30.04F
GRAFTON        FAIR      68  57  68 NE8       30.05S
GWINNER        FAIR      73  54  49 SW3       30.02F
LANGDON        FAIR      70  52  52 NE9       30.06R
ROLLA            N/A     66  54  63 E7        30.06S
WALHALLA       FAIR      66  55  68 MISG      30.05F
$$

CITY           SKY/WX    TMP DP  RH WIND       PRES   REMARKS
ABERDEEN       MOSUNNY   75  58  55 SE7       29.98F
MOBRIDGE       MOSUNNY   79  63  57 SE7       29.95F
BUFFALO          N/A     77  59  53 SE16      29.91F
RAPID CITY     CLOUDY    69  62  78 S9        29.98S
GLASGOW        SUNNY     75  51  43 SE16      29.88F
SIDNEY         MOSUNNY  N/A N/A N/A E9        29.93F
WOLF POINT     MOSUNNY   77  53  43 E10       29.91F
GLENDIVE         N/A    N/A N/A N/A MISG        N/A
MILES CITY     MOSUNNY   80  58  46 SE10      29.89F
BAKER          SUNNY     76  57  51 SE17      29.97S
$$

CITY           SKY/WX    TMP DP  RH WIND       PRES   REMARKS
BILLINGS       CLOUDY    78  50  37 SW21      29.93F
GREAT FALLS    CLOUDY    80  43  26 SW7       29.92S
REGINA         PTSUNNY   73  54  49 SE16G23   29.96F
ESTEVAN        PTSUNNY   73  52  46 E12G17    29.99F
$$



USA.gov is the U.S. government's official web portal to all federal, state and local government web resources and services.